sat.trackr.live / text

‹ back to catalog

VRSS-1

NORAD 38782 · 2012-052A

PAYLOAD ACTIVE UNKNOWN

§ Identity

Operator
Country
VENZ
Launch date
2012-09-29
Launch site
JSC
Launch vehicle
Mass (kg)
RCS (m²)
2.37

External: N2YO · Heavens-Above · Gunter

§ Orbital elements

Epoch: 2026-05-25T03:55:12.232128Z

Period
97.30 min
Inclination
97.6145°
Eccentricity
0.0016794
Mean motion
14.79970175 rev/d
Perigee alt
617.6 km
Apogee alt
641.2 km
Semi-major
7,007.6 km
B*
1.6752e-4
RAAN
122.6761°
Arg perigee
316.6905°
Mean anomaly
43.2986°
Rev number
73,620

§ Raw data

VRSS-11 38782U 12052A   26145.16333602  .00001220  00000+0  16752-3 0  99982 38782  97.6145 122.6761 0016794 316.6905  43.2986 14.79970175736204

JSON: /api/v1/satellites/38782 · /tle

For live sub-satellite position, see the globe view (requires WebGL).

§ Visibility from observer

Set your observer location to see the next 7 days of passes ≥ 10°. The values pass through the URL so the page stays shareable.

No JS? Fill the form by hand. The geolocation button needs JavaScript.

§ Radio — SatNOGS DB

ModeDescriptionDownlinkUplink
BPSK S-band telemetry 2.244 GHz

1 transmitter · refreshed weekly from db.satnogs.org